ORBCOMM FM105 [-] (41181 NORAD) Tracking and Keplerian Element Data

This shows tracking and keplerian element data for the satellite.

Feedback or suggestion? Click here.




ElementValue
Catalog41181
NameORBCOMM FM105 [-]
Epoch Orbit22582
Epoch Day92.03015641
Epoch Year2020
RAAN345.8885
Inclination47.0034
Eccentricity0.0001342
Argument of Perigee71.9133
Mean Anonmoly288.1893
Mean Motion14.43383581
Decay Rate-5.7E-07
L11 41181U 15081C 20092.03015641 -.00000057 00000-0 29288-4 0 9999
L22 41181 47.0034 345.8885 0001342 71.9133 288.1893 14.43383581225828

Live tracking and technical data element details for ORBCOMM FM105 [-] (NORAD 41181). ORBCOMM FM105 [-] can be tracked NOW for your location showing map with azimuth and elevation plus other details from your city location.

Track the satellite on the map from your city or location and see movement details for azimuth, elevation, latitude, longitude, range, height, and movement on the map or in text.







IsCatalogInMostPopularTable: catalog: 41181, numindb: 355
Update: records affected: 1



GetName: 41181 ORBCOMM FM105 [-]

Hit Count: updated at: Fri, 03 Apr 2020 06:37:59 GMT